Location: Burland Observatory
(39.4088°N, 105.4217°W)
Time: 16:19:36
(UTC-07:00)

SR - Pass Details

Date: 13 December 2019
Orbit: 574 x 882 km, 66.7° (Epoch: 24 January)

Event Time Altitude Azimuth Distance (km) Brightness Sun altitude
Rises 10:31:59 0° 265° (W) 3,323 ? 24.4°
Reaches altitude 10° 10:35:41 10° 291° (WNW) 2,451 ? 24.7°
Maximum altitude 10:38:34 14° 321° (NW) 2,215 ? 24.9°
Drops below altitude 10° 10:41:31 10° 352° (N) 2,517 ? 25.1°
Sets 10:45:27 0° 17° (NNE) 3,480 ? 25.3°
